CW5709 Weather Reports


time (UTC)temp
F
wind
direction
speed
knots
gust
knots
rain 1hr
in
rain 24hr
in
rain mn
in
humidity
%
barometer
mb
20210920053422 54 309 0.0 0.0 0.00 0.00 0.00 86 1027.3
20210920052438 54 309 0.0 0.0 0.00 0.00 0.00 86 1027.1
20210920051432 55 309 0.0 0.0 0.00 0.00 0.00 86 1027.0
20210920050422 55 309 0.0 0.9 0.00 0.00 0.00 86 1026.8
20210920045420 55 309 0.0 0.0 0.00 0.00 0.00 85 1026.6
20210920044437 55 309 0.0 0.0 0.00 0.00 0.00 85 1026.5
20210920043434 56 309 0.0 0.0 0.00 0.00 0.00 84 1026.6
20210920042425 56 309 0.0 0.0 0.00 0.00 0.00 84 1026.5
20210920041422 56 309 0.0 0.0 0.00 0.00 0.00 83 1026.2
20210920040436 57 309 0.0 0.0 0.00 0.00 0.00 83 1026.1
20210920035431 57 309 0.0 0.0 0.00 0.00 0.00 83 1026.0
20210920034421 57 309 0.0 0.0 0.00 0.00 0.00 82 1025.7
20210920033435 58 309 0.0 0.0 0.00 0.00 0.00 82 1025.7
20210920032431 58 309 0.0 0.0 0.00 0.00 0.00 82 1025.6
20210920031425 58 309 0.0 0.0 0.00 0.00 0.00 81 1025.3
20210920030439 59 309 0.0 3.5 0.00 0.00 0.00 81 1025.1
20210920025435 59 309 0.0 3.5 0.00 0.00 0.00 81 1024.9
20210920024429 59 305 0.0 6.1 0.00 0.00 0.00 79 1025.0
20210920023439 60 277 0.9 3.5 0.00 0.00 0.00 78 1024.7
20210920022429 60 277 0.0 2.6 0.00 0.00 0.00 77 1024.4
20210920021422 61 277 0.9 5.2 0.00 0.00 0.00 76 1024.3
20210920020436 62 229 0.0 0.9 0.00 0.00 0.00 76 1024.2
20210920015430 62 229 0.0 1.7 0.00 0.00 0.00 75 1024.2
20210920014427 62 229 0.0 1.7 0.00 0.00 0.00 75 1024.1
20210920013422 62 229 0.0 2.6 0.00 0.00 0.00 73 1024.2
20210920012438 63 303 0.0 3.5 0.00 0.00 0.00 74 1024.1
20210920011425 63 189 0.0 0.9 0.00 0.00 0.00 73 1024.0
20210920010443 63 189 0.0 1.7 0.00 0.00 0.00 73 1023.9
20210920005434 63 188 0.0 2.6 0.00 0.00 0.00 71 1023.9
20210920004432 64 188 0.9 4.3 0.00 0.00 0.00 71 1023.9
20210920003420 64 244 0.9 4.3 0.00 0.00 0.00 73 1023.8
20210920002437 64 302 0.9 2.6 0.00 0.00 0.00 70 1023.8
20210920001433 65 309 1.7 5.2 0.00 0.00 0.00 67 1023.7
20210920000424 65 235 2.6 7.0 0.00 0.00 0.00 62 1023.6
20210919235434 65 284 2.6 7.8 0.00 0.00 0.00 62 1023.4
20210919234430 65 286 0.9 7.8 0.00 0.00 0.00 70 1023.4
20210919233429 65 314 0.9 5.2 0.00 0.00 0.00 69 1023.3
20210919232424 65 146 1.7 7.8 0.00 0.00 0.00 70 1023.3
20210919231440 65 330 0.9 7.0 0.00 0.00 0.00 67 1023.0
20210919230434 66 332 0.9 7.0 0.00 0.00 0.00 71 1023.0
20210919225432 66 231 0.9 7.0 0.00 0.00 0.00 71 1023.1
20210919224432 67 295 0.9 7.0 0.00 0.00 0.00 69 1023.0
20210919223426 67 317 1.7 8.7 0.00 0.00 0.00 66 1022.9
20210919222422 67 174 1.7 9.6 0.00 0.00 0.00 72 1022.8
20210919221437 66 281 3.5 11.3 0.00 0.00 0.00 69 1022.9
20210919220433 65 313 3.5 8.7 0.00 0.00 0.00 74 1022.7
20210919215425 65 301 0.9 6.1 0.00 0.00 0.00 75 1022.7
20210919214423 65 281 0.9 3.5 0.00 0.00 0.00 77 1022.7
20210919213438 66 283 0.0 4.3 0.00 0.00 0.00 74 1022.7
20210919212436 65 187 0.0 0.9 0.00 0.00 0.00 80 1022.7
20210919211428 65 187 0.0 2.6 0.00 0.00 0.00 80 1022.6
20210919210426 65 187 0.0 3.5 0.00 0.00 0.00 83 1022.5
20210919205426 64 248 1.7 2.6 0.00 0.01 0.00 81 1022.5
20210919204420 63 274 0.0 0.9 0.00 0.01 0.00 83 1022.4
20210919203417 63 274 0.0 0.9 0.00 0.01 0.00 86 1022.4
20210919202435 62 274 0.0 0.0 0.00 0.01 0.00 86 1022.4
20210919201432 62 274 0.0 2.6 0.00 0.01 0.00 83 1022.4
20210919200429 62 274 0.0 0.9 0.00 0.01 0.00 81 1022.3
20210919195429 63 274 0.0 0.0 0.00 0.02 0.00 79 1022.1
20210919194422 64 274 0.0 6.1 0.00 0.02 0.00 75 1022.2
20210919193438 66 289 0.9 5.2 0.00 0.02 0.00 70 1022.1
20210919192433 66 130 1.7 4.3 0.00 0.02 0.00 71 1021.6
20210919191427 64 184 2.6 6.1 0.00 0.02 0.00 77 1021.6
20210919190420 62 165 0.0 2.6 0.00 0.02 0.00 79 1021.6
20210919185435 62 165 0.9 2.6 0.00 0.04 0.00 81 1021.4
20210919184433 61 165 0.0 2.6 0.00 0.04 0.00 83 1021.4
20210919183428 60 166 1.7 2.6 0.00 0.04 0.00 86 1021.3
20210919182420 59 167 1.7 4.3 0.00 0.04 0.00 89 1021.3
20210919181437 59 166 0.0 2.6 0.00 0.04 0.00 92 1021.1
20210919180432 59 166 0.0 2.6 0.00 0.04 0.00 92 1021.1
20210919175428 59 167 0.0 4.3 0.00 0.05 0.00 94 1021.1
20210919174420 58 166 0.0 4.3 0.00 0.05 0.00 94 1021.1
20210919173418 58 166 0.0 2.6 0.00 0.05 0.00 94 1020.9
20210919172436 58 167 0.0 4.3 0.00 0.05 0.00 94 1020.7
20210919171432 58 167 0.9 4.3 0.00 0.05 0.00 95 1020.7
20210919170430 58 167 0.0 5.2 0.00 0.05 0.00 95 1020.5
20210919165426 58 165 0.9 4.3 0.00 0.07 0.00 95 1020.2
20210919164425 57 165 0.0 0.9 0.00 0.07 0.00 95 1020.0
20210919163422 57 165 1.7 2.6 0.00 0.07 0.00 95 1019.7
20210919162437 57 165 0.0 1.7 0.00 0.07 0.00 95 1019.6
20210919161433 56 165 0.0 1.7 0.00 0.07 0.00 95 1019.4
20210919160428 56 165 0.0 2.6 0.00 0.07 0.00 95 1019.2
20210919155427 55 165 0.0 1.7 0.00 0.09 0.00 95 1019.0
20210919154421 55 165 0.0 1.7 0.00 0.09 0.00 95 1018.9
20210919153436 55 165 0.0 0.9 0.00 0.09 0.00 94 1018.7
20210919152433 54 165 0.0 0.9 0.00 0.09 0.00 94 1018.6
20210919151432 54 165 0.0 0.9 0.00 0.09 0.00 94 1018.5
20210919150425 53 165 0.0 0.0 0.00 0.09 0.00 93 1018.2
20210919145420 53 165 0.0 0.0 0.00 0.12 0.00 93 1017.9
20210919144437 53 165 0.0 0.0 0.00 0.12 0.00 93 1017.7
20210919143429 53 165 0.0 0.9 0.00 0.12 0.00 93 1017.6
20210919142437 53 165 0.0 0.0 0.00 0.12 0.00 93 1017.3
20210919141434 53 165 0.0 0.9 0.00 0.12 0.00 93 1017.3
20210919140430 54 165 0.0 0.9 0.00 0.12 0.00 93 1017.1
20210919135428 54 165 0.0 1.7 0.00 0.14 0.00 93 1016.9
20210919134438 54 165 0.0 0.9 0.00 0.14 0.00 93 1016.8
20210919133435 54 165 0.0 0.0 0.00 0.14 0.00 93 1016.5
20210919132434 54 165 0.0 0.0 0.00 0.14 0.00 93 1016.3
20210919131431 54 165 0.0 0.9 0.00 0.14 0.00 93 1015.9
20210919130423 54 165 0.0 0.0 0.00 0.14 0.00 93 1015.6
20210919125423 54 165 0.0 2.6 0.00 0.18 0.00 93 1015.6
20210919124420 54 165 0.0 0.9 0.00 0.18 0.00 93 1015.3
20210919123438 54 165 0.0 2.6 0.00 0.18 0.00 93 1015.1
20210919122430 54 163 0.0 2.6 0.00 0.18 0.00 93 1014.8
20210919121429 54 163 1.7 5.2 0.00 0.18 0.00 93 1014.7
20210919120428 54 195 0.0 0.9 0.00 0.18 0.00 93 1014.7
20210919115425 54 195 0.9 4.3 0.00 0.22 0.00 93 1014.5
20210919114419 54 161 2.6 6.1 0.00 0.22 0.00 93 1014.3
20210919113438 54 158 0.0 2.6 0.00 0.22 0.00 93 1014.3
20210919112435 54 157 1.7 6.1 0.00 0.22 0.00 93 1014.2
20210919111430 54 178 0.9 7.0 0.00 0.22 0.00 92 1014.0
20210919110421 54 157 1.7 5.2 0.00 0.22 0.00 92 1014.0
20210919105420 54 155 2.6 7.8 0.00 0.24 0.00 92 1014.0
20210919104419 54 175 3.5 5.2 0.00 0.24 0.00 92 1013.9
20210919103419 54 186 0.9 7.0 0.00 0.24 0.00 92 1014.0
20210919102434 54 170 2.6 4.3 0.00 0.24 0.00 92 1013.7
20210919101431 54 170 2.6 5.2 0.00 0.24 0.00 92 1013.6
20210919095604 54 163 1.7 6.1 0.00 0.27 0.00 92 1013.5
20210919094604 54 171 2.6 5.2 0.00 0.27 0.00 92 1013.5
20210919093438 54 170 1.7 5.2 0.00 0.27 0.00 92 1013.5
20210919092422 54 172 1.7 4.3 0.00 0.27 0.00 91 1013.5
20210919091450 54 171 0.0 0.9 0.00 0.27 0.00 91 1013.5
20210919090437 54 171 0.0 2.6 0.00 0.27 0.00 91 1013.4
20210919085415 54 171 0.0 1.7 0.00 0.28 0.00 91 1013.4
20210919084444 54 171 0.0 2.6 0.00 0.28 0.00 91 1013.4
20210919083433 54 172 1.7 7.8 0.00 0.28 0.00 91 1013.5
20210919082517 54 178 1.7 6.1 0.00 0.28 0.00 91 1013.5
20210919081435 54 171 2.6 6.1 0.00 0.28 0.00 91 1013.1
20210919075427 55 173 1.7 6.1 0.00 0.33 0.00 90 1013.2
20210919073416 55 169 0.9 5.2 0.00 0.33 0.00 90 1012.9
20210919071540 55 178 2.6 7.0 0.00 0.33 0.00 90 1012.6
20210919070420 55 143 1.7 7.8 0.00 0.33 0.00 90 1012.7
20210919065446 56 165 2.6 7.8 0.00 0.38 0.33 90 1012.7
20210919064501 56 147 2.6 7.8 0.00 0.38 0.33 90 1012.8
20210919060439 56 163 0.9 4.3 0.00 0.38 0.33 90 1012.4
20210919055441 57 163 0.9 4.3 0.00 0.38 0.33 90 1012.4